sat.trackr.live / text

‹ back to catalog

STARLINK-30525

NORAD 58012 · 2023-153X

PAYLOAD ACTIVE UNKNOWN

§ Identity

Operator
Country
US
Launch date
2023-10-05
Launch site
AFETR
Launch vehicle
Mass (kg)
RCS (m²)

Purposes: comms

External: N2YO · Heavens-Above · Gunter

§ Orbital elements

Epoch: 2026-05-24T23:09:24.228000Z

Period
94.27 min
Inclination
43.0056°
Eccentricity
0.0000902
Mean motion
15.27580366 rev/d
Perigee alt
482.4 km
Apogee alt
483.7 km
Semi-major
6,861.2 km
B*
1.4282e-5
RAAN
356.1071°
Arg perigee
276.4316°
Mean anomaly
83.6433°
Rev number
14,656

§ Raw data

STARLINK-305251 58012U 23153X   26144.96486375  .00000131  00000+0  14282-4 0  99902 58012  43.0056 356.1071 0000902 276.4316  83.6433 15.27580366146561

JSON: /api/v1/satellites/58012 · /tle

For live sub-satellite position, see the globe view (requires WebGL).

§ Visibility from observer

Set your observer location to see the next 7 days of passes ≥ 10°. The values pass through the URL so the page stays shareable.

No JS? Fill the form by hand. The geolocation button needs JavaScript.